Regional Weather Roundup
Issued by NWS New Orleans/Baton Rouge, LA

Home | Current Version | Previous Version | Graphics & Text | Print | Product List | Glossary On
Versions: 1 2 3 4 5 6 7 8 9 10 11 12 13 14 15 16 17 18 19 20 21 22 23 24 25 26 27 28 29 30 31 32 33 34 35 36 37 38 39 40 41 42 43 44 45 46 47 48 49 50
606
ASUS44 KLIX 301401
RWRLIX
NEW ORLEANS REGIONAL WEATHER ROUNDUP
NATIONAL WEATHER SERVICE NEW ORLEANS LA
800 AM CST FRI JAN 30 2015

NOTE: "FAIR" INDICATES FEW OR NO CLOUDS BELOW 12,000 FEET WITH NO
      SIGNIFICANT WEATHER AND/OR OBSTRUCTIONS TO VISIBILITY.
      SKY/WX - SKY CONDITION AND SIGNIFICANT WEATHER.
      TMP - AIR TEMPERATURE.     DP    - DEWPOINT TEMPERATURE.
      RH  - RELATIVE HUMIDITY.   PRES  - PRESSURE.
      HI  - HEAT INDEX.          WCI   - WIND CHILL INDEX.

*  THESE STATIONS ARE NOT NWS OR FAA STATIONS AND ARE NOT UNDER
   NWS QUALITY CONTROL.

LAZ038-040-048-061>063-065>067-069-301500-
SOUTHEAST LOUISIANA

CITY           SKY/WX    TMP DP  RH WIND       PRES   REMARKS
N.O. AUDUBON     N/A     50  42  73 MISG        N/A
N.O. INTL ARPT PTSUNNY   48  39  71 N17       30.37R
N.O. LAKEFRONT SUNNY     50  40  68 N17       30.38R
N.O. DOWNTOWN* NOT AVBL
SLIDELL        MOSUNNY   47  38  71 N15       30.37R
BATON ROUGE    MOSUNNY   45  33  63 N10       30.41R
BOOTHVILLE     SUNNY     53  46  77 N9G18     30.33R
BELLE CHASSE   PTSUNNY   50  39  66 N12G20    30.35R
BOGALUSA*        N/A     45  37  73 N12       30.41R
GALLIANO*      NOT AVBL
NEW ROADS*     NOT AVBL
GONZALES*      NOT AVBL
HAMMOND*       NOT AVBL
HOUMA*         SUNNY     48  43  81 N14       30.35R
PORT FOURCHON* SUNNY     54  45  71 N15       30.36R

$$

MSZ070-080>082-301500-
SOUTHERN MISSISSIPPI

CITY           SKY/WX    TMP DP  RH WIND       PRES   REMARKS
MCCOMB         MOSUNNY   42  32  67 NE10G20   30.41R
GULFPORT       MOSUNNY   47  37  68 NE16G24   30.36R
BILOXI         MOSUNNY   47  38  70 N15G24    30.36R
PASCAGOULA     MOSUNNY   46  35  65 N20G29    30.36R
STENNIS ARPT*  SUNNY     46  36  66 N14G21    30.37R

$$

COASTAL OBSERVATIONS
LAKE AND NEARSHORE STATIONS

STATION/POSITION TIME  TEMP    WIND        PRES    WAVE
                       AIR SEA DIR/SP/G            HT/PER
                 (UTC) (F)     (DEG/KT/KT) (MB)    (FT/S)
PASCAGOULA       1317   47      10/ 15/ 22 1026.5
WAVELAND YACHT   1317   48      10/ 13/ 17 1026.5
GRAND ISLE       1317   55 63   20/ 15/ 19 1026.8
SOUTHWEST PASS   1317   54 47   20/ 16/ 18 1026.2
NEW CANAL        1317   49 55   20/ 17/ 20 1028.1
SHELL BEACH      1317   51 56   10/ 19/ 21 1027.2

OFFSHORE STATIONS

STATION/POSITION TIME  TEMP    WIND        PRES    WAVE
                       AIR SEA DIR/SP/G            HT/PER
                 (UTC) (F)     (DEG/KT/KT) (MB)    (FT/S)
64 S DAUPHIN ISL 1330   57 68   20/ 23/ 29 1025.9    5/ 5

$$




USA.gov is the U.S. government's official web portal to all federal, state and local government web resources and services.